Date,TemperatureHighF,TemperatureAvgF,TemperatureLowF,DewpointHighF,DewpointAvgF,DewpointLowF,HumidityHigh,HumidityAvg,HumidityLow,PressureMaxIn,PressureMinIn,WindSpeedMaxMPH,WindSpeedAvgMPH,GustSpeedMaxMPH,PrecipitationSumIn
2013-1-1,79,71,62,63,60,58,91,70,55,30.17,30.02,7,1,12,0.00
2013-1-2,80,70,58,68,63,57,98,81,55,30.07,29.96,6,0,14,0.00
2013-1-3,82,72,64,69,66,62,97,83,61,30.10,30.00,4,0,11,0.00
2013-1-4,80,71,63,70,66,62,99,87,58,30.20,30.08,5,1,10,0.00
2013-1-5,73,68,63,70,66,62,95,92,85,30.23,30.13,6,1,12,0.08
2013-1-6,81,72,63,73,68,62,100,88,68,30.17,30.03,5,1,11,0.00
2013-1-7,75,70,66,71,68,65,99,93,80,30.14,30.05,5,0,10,0.30
2013-1-8,80,74,69,74,70,68,98,89,75,30.18,30.05,6,1,14,0.52
2013-1-9,82,76,72,72,70,68,94,82,70,30.25,30.13,7,2,17,0.02
2013-1-10,80,75,71,69,66,63,89,75,59,30.27,30.16,10,3,19,0.00
2013-1-11,79,74,71,70,68,66,89,81,70,30.23,30.13,8,2,17,0.00
2013-1-12,81,74,67,69,66,63,91,77,62,30.16,30.07,7,2,14,0.00
2013-1-13,80,73,67,69,65,61,92,76,61,30.10,30.05,7,1,17,0.00
2013-1-14,80,72,63,66,64,60,94,78,60,30.14,30.09,4,1,13,0.00
2013-1-15,79,72,67,68,66,63,91,79,64,30.11,30.02,6,1,14,0.00
2013-1-16,81,72,62,69,66,59,98,82,63,30.08,29.99,5,1,11,0.03
2013-1-17,80,71,61,71,65,51,97,82,67,30.06,29.94,12,2,22,0.00
2013-1-18,71,63,52,59,52,45,79,69,58,30.21,30.07,9,3,17,0.00
2013-1-19,70,68,66,68,64,59,97,87,70,30.19,30.08,5,0,11,0.20
2013-1-20,78,70,63,69,66,62,100,87,64,30.12,29.98,7,1,11,0.03
2013-1-21,79,71,64,70,67,63,99,88,71,30.04,29.93,6,0,12,0.22
2013-1-22,75,67,62,63,58,52,94,73,56,30.19,29.98,10,4,20,0.00
2013-1-23,74,66,60,59,55,52,81,68,48,30.27,30.17,8,3,16,0.00
2013-1-24,74,64,56,55,51,40,91,65,40,30.27,30.17,6,2,16,0.00
2013-1-25,75,64,54,59,55,50,94,74,54,30.27,30.15,5,1,12,0.00
2013-1-26,77,65,57,59,56,50,94,74,47,30.23,30.13,5,1,12,0.00
2013-1-27,77,68,60,63,59,57,93,74,50,30.26,30.17,8,2,16,0.00
2013-1-28,80,73,67,67,64,60,85,73,58,30.29,30.20,8,2,18,0.00
2013-1-29,78,73,69,70,67,64,92,81,69,30.20,30.10,4,1,14,0.02
2013-1-30,80,73,69,67,65,63,92,75,62,30.10,29.94,8,2,16,0.00
2013-1-31,70,65,55,70,57,40,99,78,47,30.16,29.92,8,2,18,0.00